Year,Month,Day,Hour,Minute,Value (Times are PST for windspeed in km/hr)
2015,08,29,00,00,8.40
2015,08,29,00,01,8.60
2015,08,29,00,02,6.90
2015,08,29,00,03,6.90
2015,08,29,00,04,7.80
2015,08,29,00,05,6.70
2015,08,29,00,06,5.70
2015,08,29,00,07,6.60
2015,08,29,00,08,7.40
2015,08,29,00,09,6.80
2015,08,29,00,10,7.10
2015,08,29,00,11,6.80
2015,08,29,00,12,6.20
2015,08,29,00,13,6.70
2015,08,29,00,14,8.10
2015,08,29,00,15,8.80
2015,08,29,00,16,8.60
2015,08,29,00,17,8.30
2015,08,29,00,18,6.50
2015,08,29,00,19,5.00
2015,08,29,00,20,6.30
2015,08,29,00,21,5.30
2015,08,29,00,22,6.60
2015,08,29,00,23,6.60
2015,08,29,00,24,8.10
2015,08,29,00,25,8.70
2015,08,29,00,26,8.10
2015,08,29,00,27,6.90
2015,08,29,00,28,7.80
2015,08,29,00,29,7.20
2015,08,29,00,30,7.10
2015,08,29,00,31,6.90
2015,08,29,00,32,7.10
2015,08,29,00,33,8.10
2015,08,29,00,34,8.00
2015,08,29,00,35,7.70
2015,08,29,00,36,8.50
2015,08,29,00,37,7.60
2015,08,29,00,38,10.00
2015,08,29,00,39,13.90
2015,08,29,00,40,13.40
2015,08,29,00,41,12.90
2015,08,29,00,42,8.90
2015,08,29,00,43,10.40
2015,08,29,00,44,11.00
2015,08,29,00,45,8.40
2015,08,29,00,46,9.30
2015,08,29,00,47,8.30
2015,08,29,00,48,9.70
2015,08,29,00,49,9.60
2015,08,29,00,50,6.30
2015,08,29,00,51,8.30
2015,08,29,00,52,6.70
2015,08,29,00,53,8.60
2015,08,29,00,54,7.60
2015,08,29,00,55,7.80
2015,08,29,00,56,11.40
2015,08,29,00,57,8.20
2015,08,29,00,58,7.20
2015,08,29,00,59,8.00
2015,08,29,01,00,9.10
2015,08,29,01,01,10.10
2015,08,29,01,02,9.80
2015,08,29,01,03,7.00
2015,08,29,01,04,8.00
2015,08,29,01,05,8.80
2015,08,29,01,06,8.40
2015,08,29,01,07,8.20
2015,08,29,01,08,9.90
2015,08,29,01,09,7.70
2015,08,29,01,10,7.60
2015,08,29,01,11,8.80
2015,08,29,01,12,8.50
2015,08,29,01,13,8.30
2015,08,29,01,14,7.70
2015,08,29,01,15,9.60
2015,08,29,01,16,10.30
2015,08,29,01,17,7.50
2015,08,29,01,18,11.10
2015,08,29,01,19,11.60
2015,08,29,01,20,10.30
2015,08,29,01,21,13.10
2015,08,29,01,22,9.40
2015,08,29,01,23,8.80
2015,08,29,01,24,9.20
2015,08,29,01,25,11.70
2015,08,29,01,26,11.30
2015,08,29,01,27,8.90
2015,08,29,01,28,12.20
2015,08,29,01,29,10.50
2015,08,29,01,30,9.60
2015,08,29,01,31,10.90
2015,08,29,01,32,9.20
2015,08,29,01,33,8.40
2015,08,29,01,34,9.50
2015,08,29,01,35,10.60
2015,08,29,01,36,9.90
2015,08,29,01,37,9.10
2015,08,29,01,38,11.80
2015,08,29,01,39,15.00
2015,08,29,01,40,13.40
2015,08,29,01,41,12.00
2015,08,29,01,42,9.90
2015,08,29,01,43,11.80
2015,08,29,01,44,12.50
2015,08,29,01,45,12.30
2015,08,29,01,46,12.30
2015,08,29,01,47,10.30
2015,08,29,01,48,10.90
2015,08,29,01,49,11.70
2015,08,29,01,50,8.70
2015,08,29,01,51,5.80
2015,08,29,01,52,7.60
2015,08,29,01,53,7.70
2015,08,29,01,54,5.80
2015,08,29,01,55,4.40
2015,08,29,01,56,5.90
2015,08,29,01,57,8.60
2015,08,29,01,58,10.50
2015,08,29,01,59,7.20
2015,08,29,02,00,5.60
2015,08,29,02,01,5.30
2015,08,29,02,02,5.50
2015,08,29,02,03,6.60
2015,08,29,02,04,6.90
2015,08,29,02,05,6.30
2015,08,29,02,06,6.00
2015,08,29,02,07,5.30
2015,08,29,02,08,6.10
2015,08,29,02,09,8.20
2015,08,29,02,10,6.40
2015,08,29,02,11,5.00
2015,08,29,02,12,5.70
2015,08,29,02,13,4.40
2015,08,29,02,14,4.00
2015,08,29,02,15,5.30
2015,08,29,02,16,4.70
2015,08,29,02,17,5.30
2015,08,29,02,18,5.70
2015,08,29,02,19,4.90
2015,08,29,02,20,5.50
2015,08,29,02,21,4.40
2015,08,29,02,22,6.40
2015,08,29,02,23,5.40
2015,08,29,02,24,4.70
2015,08,29,02,25,4.70
2015,08,29,02,26,5.20
2015,08,29,02,27,5.80
2015,08,29,02,28,7.70
2015,08,29,02,29,7.60
2015,08,29,02,30,10.50
2015,08,29,02,31,11.00
2015,08,29,02,32,14.10
2015,08,29,02,33,14.10
2015,08,29,02,34,15.00
2015,08,29,02,35,16.40
2015,08,29,02,36,16.80
2015,08,29,02,37,15.60
2015,08,29,02,38,9.90
2015,08,29,02,39,8.20
2015,08,29,02,40,7.80
2015,08,29,02,41,7.30
2015,08,29,02,42,8.00
2015,08,29,02,43,8.90
2015,08,29,02,44,11.60
2015,08,29,02,45,12.00
2015,08,29,02,46,11.80
2015,08,29,02,47,12.80
2015,08,29,02,48,13.80
2015,08,29,02,49,14.00
2015,08,29,02,50,14.80
2015,08,29,02,51,16.60
2015,08,29,02,52,17.40
2015,08,29,02,53,18.40
2015,08,29,02,54,16.20
2015,08,29,02,55,16.30
2015,08,29,02,56,21.30
2015,08,29,02,57,20.40
2015,08,29,02,58,23.60
2015,08,29,02,59,20.00
2015,08,29,03,00,18.50
2015,08,29,03,01,18.90
2015,08,29,03,02,19.00
2015,08,29,03,03,17.10
2015,08,29,03,04,16.40
2015,08,29,03,05,15.30
2015,08,29,03,06,12.80
2015,08,29,03,07,15.00
2015,08,29,03,08,15.30
2015,08,29,03,09,18.10
2015,08,29,03,10,17.50
2015,08,29,03,11,17.80
2015,08,29,03,12,14.90
2015,08,29,03,13,16.30
2015,08,29,03,14,16.20
2015,08,29,03,15,15.10
2015,08,29,03,16,16.10
2015,08,29,03,17,17.50
2015,08,29,03,18,16.70
2015,08,29,03,19,12.20
2015,08,29,03,20,15.50
2015,08,29,03,21,17.60
2015,08,29,03,22,15.70
2015,08,29,03,23,15.90
2015,08,29,03,24,18.40
2015,08,29,03,25,16.00
2015,08,29,03,26,15.60
2015,08,29,03,27,15.10
2015,08,29,03,28,14.60
2015,08,29,03,29,13.50
2015,08,29,03,30,11.00
2015,08,29,03,31,11.00
2015,08,29,03,32,12.70
2015,08,29,03,33,12.90
2015,08,29,03,34,12.50
2015,08,29,03,35,9.50
2015,08,29,03,36,10.80
2015,08,29,03,37,13.80
2015,08,29,03,38,14.60
2015,08,29,03,39,15.90
2015,08,29,03,40,16.80
2015,08,29,03,41,14.30
2015,08,29,03,42,15.40
2015,08,29,03,43,15.50
2015,08,29,03,44,14.10
2015,08,29,03,45,13.50
2015,08,29,03,46,16.00
2015,08,29,03,47,14.30
2015,08,29,03,48,9.70
2015,08,29,03,49,9.60
2015,08,29,03,50,10.00
2015,08,29,03,51,8.30
2015,08,29,03,52,7.40
2015,08,29,03,53,9.50
2015,08,29,03,54,8.60
2015,08,29,03,55,12.50
2015,08,29,03,56,9.20
2015,08,29,03,57,11.00
2015,08,29,03,58,9.40
2015,08,29,03,59,10.80
2015,08,29,04,00,10.60
2015,08,29,04,01,9.70
2015,08,29,04,02,9.90
2015,08,29,04,03,9.50
2015,08,29,04,04,12.20
2015,08,29,04,05,16.30
2015,08,29,04,06,15.90
2015,08,29,04,07,15.40
2015,08,29,04,08,16.10
2015,08,29,04,09,17.90
2015,08,29,04,10,20.10
2015,08,29,04,11,16.30
2015,08,29,04,12,17.90
2015,08,29,04,13,19.00
2015,08,29,04,14,16.00
2015,08,29,04,15,13.00
2015,08,29,04,16,16.30
2015,08,29,04,17,18.00
2015,08,29,04,18,18.30
2015,08,29,04,19,15.60
2015,08,29,04,20,15.30
2015,08,29,04,21,15.60
2015,08,29,04,22,15.60
2015,08,29,04,23,16.90
2015,08,29,04,24,14.00
2015,08,29,04,25,14.00
2015,08,29,04,26,13.80
2015,08,29,04,27,13.50
2015,08,29,04,28,16.00
2015,08,29,04,29,15.70
2015,08,29,04,30,16.40
2015,08,29,04,31,17.50
2015,08,29,04,32,17.00
2015,08,29,04,33,14.50
2015,08,29,04,34,16.00
2015,08,29,04,35,19.00
2015,08,29,04,36,17.30
2015,08,29,04,37,16.70
2015,08,29,04,38,15.70
2015,08,29,04,39,15.10
2015,08,29,04,40,14.60
2015,08,29,04,41,14.70
2015,08,29,04,42,13.10
2015,08,29,04,43,12.80
2015,08,29,04,44,14.10
2015,08,29,04,45,17.80
2015,08,29,04,46,16.80
2015,08,29,04,47,17.10
2015,08,29,04,48,16.90
2015,08,29,04,49,14.90
2015,08,29,04,50,15.10
2015,08,29,04,51,16.00
2015,08,29,04,52,14.30
2015,08,29,04,53,14.00
2015,08,29,04,54,16.00
2015,08,29,04,55,14.50
2015,08,29,04,56,13.30
2015,08,29,04,57,13.40
2015,08,29,04,58,17.30
2015,08,29,04,59,18.20
2015,08,29,05,00,17.00
2015,08,29,05,01,17.70
2015,08,29,05,02,17.90
2015,08,29,05,03,16.30
2015,08,29,05,04,17.80
2015,08,29,05,05,17.80
2015,08,29,05,06,16.60
2015,08,29,05,07,16.40
2015,08,29,05,08,16.30
2015,08,29,05,09,17.30
2015,08,29,05,10,15.60
2015,08,29,05,11,14.80
2015,08,29,05,12,16.40
2015,08,29,05,13,16.10
2015,08,29,05,14,15.30
2015,08,29,05,15,14.10
2015,08,29,05,16,14.00
2015,08,29,05,17,16.00
2015,08,29,05,18,13.70
2015,08,29,05,19,12.50
2015,08,29,05,20,11.60
2015,08,29,05,21,15.60
2015,08,29,05,22,12.50
2015,08,29,05,23,12.40
2015,08,29,05,24,12.50
2015,08,29,05,25,15.10
2015,08,29,05,26,11.80
2015,08,29,05,27,13.30
2015,08,29,05,28,9.50
2015,08,29,05,29,10.10
2015,08,29,05,30,10.80
2015,08,29,05,31,7.30
2015,08,29,05,32,7.80
2015,08,29,05,33,7.20
2015,08,29,05,34,6.30
2015,08,29,05,35,5.30
2015,08,29,05,36,6.10
2015,08,29,05,37,8.50
2015,08,29,05,38,6.30
2015,08,29,05,39,4.90
2015,08,29,05,40,3.90
2015,08,29,05,41,2.40
2015,08,29,05,42,0.60
2015,08,29,05,43,0.20
2015,08,29,05,44,0.00
2015,08,29,05,45,0.50
2015,08,29,05,46,2.50
2015,08,29,05,47,2.00
2015,08,29,05,48,1.20
2015,08,29,05,49,2.40
2015,08,29,05,50,2.20
2015,08,29,05,51,2.60
2015,08,29,05,52,2.90
2015,08,29,05,53,2.70
2015,08,29,05,54,5.00
2015,08,29,05,55,7.20
2015,08,29,05,56,13.30
2015,08,29,05,57,19.60
2015,08,29,05,58,21.70
2015,08,29,05,59,18.70
2015,08,29,06,00,14.70
2015,08,29,06,01,16.00
2015,08,29,06,02,14.00
2015,08,29,06,03,11.20
2015,08,29,06,04,13.90
2015,08,29,06,05,14.30
2015,08,29,06,06,13.40
2015,08,29,06,07,15.70
2015,08,29,06,08,14.00
2015,08,29,06,09,13.90
2015,08,29,06,10,11.20
2015,08,29,06,11,9.70
2015,08,29,06,12,11.50
2015,08,29,06,13,10.20
2015,08,29,06,14,10.20
2015,08,29,06,15,10.20
2015,08,29,06,16,9.20
2015,08,29,06,17,11.30
2015,08,29,06,18,11.70
2015,08,29,06,19,11.20
2015,08,29,06,20,8.40
2015,08,29,06,21,6.50
2015,08,29,06,22,4.80
2015,08,29,06,23,6.30
2015,08,29,06,24,6.70
2015,08,29,06,25,9.10
2015,08,29,06,26,12.00
2015,08,29,06,27,14.00
2015,08,29,06,28,12.00
2015,08,29,06,29,9.50
2015,08,29,06,30,9.40
2015,08,29,06,31,7.90
2015,08,29,06,32,10.30
2015,08,29,06,33,7.70
2015,08,29,06,34,8.60
2015,08,29,06,35,8.30
2015,08,29,06,36,8.50
2015,08,29,06,37,8.20
2015,08,29,06,38,6.70
2015,08,29,06,39,6.70
2015,08,29,06,40,7.30
2015,08,29,06,41,6.50
2015,08,29,06,42,6.90
2015,08,29,06,43,7.20
2015,08,29,06,44,8.60
2015,08,29,06,45,14.00
2015,08,29,06,46,15.90
2015,08,29,06,47,15.10
2015,08,29,06,48,16.60
2015,08,29,06,49,17.20
2015,08,29,06,50,15.60
2015,08,29,06,51,16.60
2015,08,29,06,52,18.60
2015,08,29,06,53,18.80
2015,08,29,06,54,18.30
2015,08,29,06,55,17.30
2015,08,29,06,56,17.40
2015,08,29,06,57,17.80
2015,08,29,06,58,16.30
2015,08,29,06,59,15.50
2015,08,29,07,00,12.00
2015,08,29,07,01,15.10
2015,08,29,07,02,16.40
2015,08,29,07,03,23.40
2015,08,29,07,04,24.60
2015,08,29,07,05,24.00
2015,08,29,07,06,22.20
2015,08,29,07,07,22.40
2015,08,29,07,08,21.50
2015,08,29,07,09,20.90
2015,08,29,07,10,23.20
2015,08,29,07,11,23.40
2015,08,29,07,12,21.40
2015,08,29,07,13,20.40
2015,08,29,07,14,21.50
2015,08,29,07,15,20.00
2015,08,29,07,16,22.80
2015,08,29,07,17,21.60
2015,08,29,07,18,20.30
2015,08,29,07,19,22.40
2015,08,29,07,20,24.70
2015,08,29,07,21,22.10
2015,08,29,07,22,21.30
2015,08,29,07,23,22.80
2015,08,29,07,24,20.00
2015,08,29,07,25,24.00
2015,08,29,07,26,24.30
2015,08,29,07,27,26.30
2015,08,29,07,28,28.80
2015,08,29,07,29,24.30
2015,08,29,07,30,23.80
2015,08,29,07,31,20.70
2015,08,29,07,32,28.40
2015,08,29,07,33,20.30
2015,08,29,07,34,17.20
2015,08,29,07,35,21.40
2015,08,29,07,36,23.10
2015,08,29,07,37,22.00
2015,08,29,07,38,16.30
2015,08,29,07,39,18.30
2015,08,29,07,40,18.90
2015,08,29,07,41,15.80
2015,08,29,07,42,17.90
2015,08,29,07,43,16.80
2015,08,29,07,44,19.40
2015,08,29,07,45,14.10
2015,08,29,07,46,11.60
2015,08,29,07,47,14.70
2015,08,29,07,48,14.40
2015,08,29,07,49,14.00
2015,08,29,07,50,9.50
2015,08,29,07,51,12.00
2015,08,29,07,52,13.90
2015,08,29,07,53,13.40
2015,08,29,07,54,16.60
2015,08,29,07,55,16.10
2015,08,29,07,56,13.90
2015,08,29,07,57,9.90
2015,08,29,07,58,8.90
2015,08,29,07,59,4.40
2015,08,29,08,00,4.30
2015,08,29,08,01,12.70
2015,08,29,08,02,13.50
2015,08,29,08,03,13.30
2015,08,29,08,04,14.50
2015,08,29,08,05,15.50
2015,08,29,08,06,16.70
2015,08,29,08,07,17.70
2015,08,29,08,08,20.90
2015,08,29,08,09,24.50
2015,08,29,08,10,24.10
2015,08,29,08,11,23.50
2015,08,29,08,12,21.40
2015,08,29,08,13,20.30
2015,08,29,08,14,22.30
2015,08,29,08,15,19.90
2015,08,29,08,16,15.20
2015,08,29,08,17,15.20
2015,08,29,08,18,14.00
2015,08,29,08,19,12.20
2015,08,29,08,20,16.40
2015,08,29,08,21,16.00
2015,08,29,08,22,16.10
2015,08,29,08,23,10.80
2015,08,29,08,24,12.90
2015,08,29,08,25,19.10
2015,08,29,08,26,9.30
2015,08,29,08,27,12.00
2015,08,29,08,28,20.00
2015,08,29,08,29,17.40
2015,08,29,08,30,19.90
2015,08,29,08,31,20.50
2015,08,29,08,32,19.80
2015,08,29,08,33,21.50
2015,08,29,08,34,23.70
2015,08,29,08,35,30.40
2015,08,29,08,36,36.60
2015,08,29,08,37,38.80
2015,08,29,08,38,32.80
2015,08,29,08,39,38.10
2015,08,29,08,40,45.90
2015,08,29,08,41,33.30
2015,08,29,08,42,29.30
2015,08,29,08,43,40.90
2015,08,29,08,44,34.40
2015,08,29,08,45,37.30
2015,08,29,08,46,36.70
2015,08,29,08,47,32.60
2015,08,29,08,48,31.60
2015,08,29,08,49,31.20
2015,08,29,08,50,36.80
2015,08,29,08,51,39.50
2015,08,29,08,52,38.80
2015,08,29,08,53,38.90
2015,08,29,08,54,36.70
2015,08,29,08,55,30.80
2015,08,29,08,56,33.90
2015,08,29,08,57,37.60
2015,08,29,08,58,33.10
2015,08,29,08,59,32.70
2015,08,29,09,00,37.50
2015,08,29,09,01,34.50
2015,08,29,09,02,27.70
2015,08,29,09,03,27.90
2015,08,29,09,04,30.40
2015,08,29,09,05,35.50
2015,08,29,09,06,37.40
2015,08,29,09,07,34.10
2015,08,29,09,08,35.30
2015,08,29,09,09,35.50
2015,08,29,09,10,37.20
2015,08,29,09,11,31.20
2015,08,29,09,12,32.40
2015,08,29,09,13,31.40
2015,08,29,09,14,28.00
2015,08,29,09,15,29.60
2015,08,29,09,16,29.00
2015,08,29,09,17,32.20
2015,08,29,09,18,31.90
2015,08,29,09,19,32.40
2015,08,29,09,20,30.70
2015,08,29,09,21,33.10
2015,08,29,09,22,28.90
2015,08,29,09,23,37.60
2015,08,29,09,24,37.80
2015,08,29,09,25,40.30
2015,08,29,09,26,42.50
2015,08,29,09,27,43.10
2015,08,29,09,28,43.20
2015,08,29,09,29,41.70
2015,08,29,09,30,44.10
2015,08,29,09,31,37.20
2015,08,29,09,32,35.00
2015,08,29,09,33,34.60
2015,08,29,09,34,34.20
2015,08,29,09,35,37.40
2015,08,29,09,36,42.10
2015,08,29,09,37,39.10
2015,08,29,09,38,43.60
2015,08,29,09,39,42.00
2015,08,29,09,40,41.60
2015,08,29,09,41,41.00
2015,08,29,09,42,41.10
2015,08,29,09,43,40.60
2015,08,29,09,44,37.60
2015,08,29,09,45,40.60
2015,08,29,09,46,41.70
2015,08,29,09,47,41.10
2015,08,29,09,48,40.70
2015,08,29,09,49,41.30
2015,08,29,09,50,41.00
2015,08,29,09,51,37.20
2015,08,29,09,52,37.00
2015,08,29,09,53,36.90
2015,08,29,09,54,37.80
2015,08,29,09,55,33.10
2015,08,29,09,56,35.30
2015,08,29,09,57,35.90
2015,08,29,09,58,35.90
2015,08,29,09,59,37.30
2015,08,29,10,00,35.90
2015,08,29,10,01,36.00
2015,08,29,10,02,33.70
2015,08,29,10,03,32.80
2015,08,29,10,04,31.00
2015,08,29,10,05,30.70
2015,08,29,10,06,36.30
2015,08,29,10,07,36.30
2015,08,29,10,08,35.40
2015,08,29,10,09,34.10
2015,08,29,10,10,31.50
2015,08,29,10,11,33.80
2015,08,29,10,12,30.80
2015,08,29,10,13,26.60
2015,08,29,10,14,26.30
2015,08,29,10,15,34.40
2015,08,29,10,16,38.70
2015,08,29,10,17,38.60
2015,08,29,10,18,35.10
2015,08,29,10,19,45.70
2015,08,29,10,20,39.20
2015,08,29,10,21,43.00
2015,08,29,10,22,42.10
2015,08,29,10,23,43.90
2015,08,29,10,24,46.20
2015,08,29,10,25,42.50
2015,08,29,10,26,47.50
2015,08,29,10,27,47.40
2015,08,29,10,28,44.60
2015,08,29,10,29,41.90
2015,08,29,10,30,55.00
2015,08,29,10,31,47.50
2015,08,29,10,32,45.00
2015,08,29,10,33,45.30
2015,08,29,10,34,44.10
2015,08,29,10,35,39.10
2015,08,29,10,36,38.00
2015,08,29,10,37,45.30
2015,08,29,10,38,37.30
2015,08,29,10,39,42.30
2015,08,29,10,40,38.90
2015,08,29,10,41,42.00
2015,08,29,10,42,46.20
2015,08,29,10,43,40.50
2015,08,29,10,44,42.30
2015,08,29,10,45,43.50
2015,08,29,10,46,44.30
2015,08,29,10,47,45.30
2015,08,29,10,48,48.20
2015,08,29,10,49,47.50
2015,08,29,10,50,51.90
2015,08,29,10,51,49.60
2015,08,29,10,52,47.00
2015,08,29,10,53,52.70
2015,08,29,10,54,49.60
2015,08,29,10,55,43.60
2015,08,29,10,56,45.60
2015,08,29,10,57,49.20
2015,08,29,10,58,50.20
2015,08,29,10,59,49.40
2015,08,29,11,00,50.90
2015,08,29,11,01,51.90
2015,08,29,11,02,50.90
2015,08,29,11,03,52.20
2015,08,29,11,04,48.40
2015,08,29,11,05,51.10
2015,08,29,11,06,53.00
2015,08,29,11,07,47.90
2015,08,29,11,08,53.70
2015,08,29,11,09,56.10
2015,08,29,11,10,51.10
2015,08,29,11,11,46.90
2015,08,29,11,12,42.60
2015,08,29,11,13,51.20
2015,08,29,11,14,57.00
2015,08,29,11,15,54.80
2015,08,29,11,16,50.60
2015,08,29,11,17,48.50
2015,08,29,11,18,40.20
2015,08,29,11,19,47.50
2015,08,29,11,20,42.30
2015,08,29,11,21,40.10
2015,08,29,11,22,45.80
2015,08,29,11,23,44.90
2015,08,29,11,24,47.10
2015,08,29,11,25,43.80
2015,08,29,11,26,44.40
2015,08,29,11,27,50.90
2015,08,29,11,28,45.90
2015,08,29,11,29,45.20
2015,08,29,11,30,47.10
2015,08,29,11,31,44.30
2015,08,29,11,32,48.10
2015,08,29,11,33,51.10
2015,08,29,11,34,49.40
2015,08,29,11,35,40.90
2015,08,29,11,36,45.00
2015,08,29,11,37,49.50
2015,08,29,11,38,51.30
2015,08,29,11,39,50.90
2015,08,29,11,40,39.20
2015,08,29,11,41,41.60
2015,08,29,11,42,45.60
2015,08,29,11,43,38.20
2015,08,29,11,44,42.40
2015,08,29,11,45,45.50
2015,08,29,11,46,39.30
2015,08,29,11,47,41.80
2015,08,29,11,48,38.50
2015,08,29,11,49,38.10
2015,08,29,11,50,45.90
2015,08,29,11,51,44.20
2015,08,29,11,52,34.10
2015,08,29,11,53,30.40
2015,08,29,11,54,36.10
2015,08,29,11,55,32.50
2015,08,29,11,56,29.90
2015,08,29,11,57,35.10
2015,08,29,11,58,40.50
2015,08,29,11,59,36.20
2015,08,29,12,00,27.10
2015,08,29,12,01,36.20
2015,08,29,12,02,33.70
2015,08,29,12,03,31.20
2015,08,29,12,04,32.10
2015,08,29,12,05,31.20
2015,08,29,12,06,30.20
2015,08,29,12,07,28.20
2015,08,29,12,08,23.40
2015,08,29,12,09,23.40
2015,08,29,12,10,14.00
2015,08,29,12,11,18.30
2015,08,29,12,12,15.00
2015,08,29,12,13,17.10
2015,08,29,12,14,14.50
2015,08,29,12,15,19.30
2015,08,29,12,16,24.30
2015,08,29,12,17,19.30
2015,08,29,12,18,15.30
2015,08,29,12,19,13.90
2015,08,29,12,20,13.90
2015,08,29,12,21,4.40
2015,08,29,12,22,11.80
2015,08,29,12,23,11.70
2015,08,29,12,24,6.00
2015,08,29,12,25,3.80
2015,08,29,12,26,6.60
2015,08,29,12,27,7.40
2015,08,29,12,28,8.10
2015,08,29,12,29,12.50
2015,08,29,12,30,12.60
2015,08,29,12,31,17.50
2015,08,29,12,32,14.40
2015,08,29,12,33,18.70
2015,08,29,12,34,21.50
2015,08,29,12,35,27.00
2015,08,29,12,36,24.90
2015,08,29,12,37,22.80
2015,08,29,12,38,21.80
2015,08,29,12,39,20.20
2015,08,29,12,40,19.70
2015,08,29,12,41,17.20
2015,08,29,12,42,9.30
2015,08,29,12,43,11.20
2015,08,29,12,44,9.20
2015,08,29,12,45,13.80
2015,08,29,12,46,15.80
2015,08,29,12,47,14.40
2015,08,29,12,48,14.00
2015,08,29,12,49,12.90
2015,08,29,12,50,23.70
2015,08,29,12,51,25.50
2015,08,29,12,52,15.60
2015,08,29,12,53,15.30
2015,08,29,12,54,16.40
2015,08,29,12,55,10.50
2015,08,29,12,56,20.20
2015,08,29,12,57,8.80
2015,08,29,12,58,9.70
2015,08,29,12,59,7.20
2015,08,29,13,00,9.80
2015,08,29,13,01,12.30
2015,08,29,13,02,14.80
2015,08,29,13,03,14.20
2015,08,29,13,04,13.10
2015,08,29,13,05,7.60
2015,08,29,13,06,14.00
2015,08,29,13,07,17.90
2015,08,29,13,08,12.70
2015,08,29,13,09,10.30
2015,08,29,13,10,14.10
2015,08,29,13,11,14.00
2015,08,29,13,12,12.40
2015,08,29,13,13,15.20
2015,08,29,13,14,19.00
2015,08,29,13,15,17.10
2015,08,29,13,16,12.50
2015,08,29,13,17,9.40
2015,08,29,13,18,8.30
2015,08,29,13,19,9.10
2015,08,29,13,20,10.40
2015,08,29,13,21,11.30
2015,08,29,13,22,19.30
2015,08,29,13,23,12.10
2015,08,29,13,24,11.30
2015,08,29,13,25,7.30
2015,08,29,13,26,7.10
2015,08,29,13,27,6.50
2015,08,29,13,28,4.00
2015,08,29,13,29,2.70
2015,08,29,13,30,2.80
2015,08,29,13,31,3.30
2015,08,29,13,32,6.80
2015,08,29,13,33,9.10
2015,08,29,13,34,10.40
2015,08,29,13,35,8.80
2015,08,29,13,36,11.30
2015,08,29,13,37,11.40
2015,08,29,13,38,13.90
2015,08,29,13,39,9.80
2015,08,29,13,40,7.70
2015,08,29,13,41,7.00
2015,08,29,13,42,6.10
2015,08,29,13,43,5.40
2015,08,29,13,44,7.20
2015,08,29,13,45,9.60
2015,08,29,13,46,7.60
2015,08,29,13,47,8.90
2015,08,29,13,48,8.00
2015,08,29,13,49,11.50
2015,08,29,13,50,12.00
2015,08,29,13,51,11.00
2015,08,29,13,52,12.50
2015,08,29,13,53,11.80
2015,08,29,13,54,10.10
2015,08,29,13,55,13.40
2015,08,29,13,56,11.30
2015,08,29,13,57,13.20
2015,08,29,13,58,15.10
2015,08,29,13,59,16.90
2015,08,29,14,00,18.70
2015,08,29,14,01,19.00
2015,08,29,14,02,10.50
2015,08,29,14,03,7.30
2015,08,29,14,04,8.50
2015,08,29,14,05,8.80
2015,08,29,14,06,6.80
2015,08,29,14,07,4.90
2015,08,29,14,08,6.90
2015,08,29,14,09,19.20
2015,08,29,14,10,18.30
2015,08,29,14,11,20.80
2015,08,29,14,12,11.60
2015,08,29,14,13,12.80
2015,08,29,14,14,21.10
2015,08,29,14,15,14.70
2015,08,29,14,16,25.10
2015,08,29,14,17,18.40
2015,08,29,14,18,10.80
2015,08,29,14,19,22.90
2015,08,29,14,20,17.30
2015,08,29,14,21,26.90
2015,08,29,14,22,16.00
2015,08,29,14,23,13.30
2015,08,29,14,24,6.60
2015,08,29,14,25,13.00
2015,08,29,14,26,13.30
2015,08,29,14,27,11.30
2015,08,29,14,28,15.80
2015,08,29,14,29,16.50
2015,08,29,14,30,28.20
2015,08,29,14,31,19.70
2015,08,29,14,32,17.50
2015,08,29,14,33,22.90
2015,08,29,14,34,14.60
2015,08,29,14,35,20.30
2015,08,29,14,36,19.90
2015,08,29,14,37,12.40
2015,08,29,14,38,17.80
2015,08,29,14,39,19.30
2015,08,29,14,40,22.50
2015,08,29,14,41,21.00
2015,08,29,14,42,21.00
2015,08,29,14,43,21.70
2015,08,29,14,44,15.90
2015,08,29,14,45,16.10
2015,08,29,14,46,25.90
2015,08,29,14,47,29.90
2015,08,29,14,48,23.90
2015,08,29,14,49,27.80
2015,08,29,14,50,16.40
2015,08,29,14,51,16.40
2015,08,29,14,52,11.20
2015,08,29,14,53,20.30
2015,08,29,14,54,31.50
2015,08,29,14,55,24.40
2015,08,29,14,56,20.30
2015,08,29,14,57,23.10
2015,08,29,14,58,20.10
2015,08,29,14,59,20.80
2015,08,29,15,00,21.20
2015,08,29,15,01,20.80
2015,08,29,15,02,17.50
2015,08,29,15,03,13.90
2015,08,29,15,04,12.20
2015,08,29,15,05,13.50
2015,08,29,15,06,8.30
2015,08,29,15,07,7.70
2015,08,29,15,08,11.60
2015,08,29,15,09,20.50
2015,08,29,15,10,9.10
2015,08,29,15,11,13.10
2015,08,29,15,12,24.00
2015,08,29,15,13,15.10
2015,08,29,15,14,12.50
2015,08,29,15,15,13.90
2015,08,29,15,16,14.00
2015,08,29,15,17,13.40
2015,08,29,15,18,17.30
2015,08,29,15,19,14.40
2015,08,29,15,20,14.20
2015,08,29,15,21,14.40
2015,08,29,15,22,16.40
2015,08,29,15,23,16.20
2015,08,29,15,24,9.70
2015,08,29,15,25,7.10
2015,08,29,15,26,9.50
2015,08,29,15,27,2.80
2015,08,29,15,28,3.60
2015,08,29,15,29,2.90
2015,08,29,15,30,5.30
2015,08,29,15,31,6.50
2015,08,29,15,32,11.20
2015,08,29,15,33,13.10
2015,08,29,15,34,19.20
2015,08,29,15,35,18.80
2015,08,29,15,36,15.10
2015,08,29,15,37,15.50
2015,08,29,15,38,14.70
2015,08,29,15,39,11.40
2015,08,29,15,40,12.20
2015,08,29,15,41,17.40
2015,08,29,15,42,15.20
2015,08,29,15,43,16.10
2015,08,29,15,44,14.40
2015,08,29,15,45,13.80
2015,08,29,15,46,13.60
2015,08,29,15,47,14.80
2015,08,29,15,48,12.70
2015,08,29,15,49,11.40
2015,08,29,15,50,13.90
2015,08,29,15,51,12.30
2015,08,29,15,52,12.80
2015,08,29,15,53,7.70
2015,08,29,15,54,11.70
2015,08,29,15,55,15.40
2015,08,29,15,56,16.20
2015,08,29,15,57,13.90
2015,08,29,15,58,13.10
2015,08,29,15,59,14.70
2015,08,29,16,00,12.20
2015,08,29,16,01,12.30
2015,08,29,16,02,10.90
2015,08,29,16,03,7.90
2015,08,29,16,04,5.30
2015,08,29,16,05,4.20
2015,08,29,16,06,3.90
2015,08,29,16,07,5.90
2015,08,29,16,08,11.60
2015,08,29,16,09,13.30
2015,08,29,16,10,12.50
2015,08,29,16,11,8.40
2015,08,29,16,12,7.30
2015,08,29,16,13,7.10
2015,08,29,16,14,6.30
2015,08,29,16,15,6.70
2015,08,29,16,16,5.90
2015,08,29,16,17,10.90
2015,08,29,16,18,12.30
2015,08,29,16,19,8.40
2015,08,29,16,20,6.10
2015,08,29,16,21,5.90
2015,08,29,16,22,7.50
2015,08,29,16,23,7.60
2015,08,29,16,24,9.00
2015,08,29,16,25,7.40
2015,08,29,16,26,4.90
2015,08,29,16,27,6.10
2015,08,29,16,28,5.30
2015,08,29,16,29,3.40
2015,08,29,16,30,3.40
2015,08,29,16,31,4.10
2015,08,29,16,32,4.40
2015,08,29,16,33,2.50
2015,08,29,16,34,3.30
2015,08,29,16,35,4.30
2015,08,29,16,36,2.50
2015,08,29,16,37,4.10
2015,08,29,16,38,5.30
2015,08,29,16,39,4.40
2015,08,29,16,40,3.80
2015,08,29,16,41,1.50
2015,08,29,16,42,1.40
2015,08,29,16,43,0.00
2015,08,29,16,44,2.60
2015,08,29,16,45,4.10
2015,08,29,16,46,5.60
2015,08,29,16,47,5.00
2015,08,29,16,48,4.00
2015,08,29,16,49,3.30
2015,08,29,16,50,3.40
2015,08,29,16,51,5.10
2015,08,29,16,52,5.70
2015,08,29,16,53,5.10
2015,08,29,16,54,4.60
2015,08,29,16,55,3.30
2015,08,29,16,56,2.80
2015,08,29,16,57,3.10
2015,08,29,16,58,1.70
2015,08,29,16,59,0.00
2015,08,29,17,00,0.10
2015,08,29,17,01,1.00
2015,08,29,17,02,0.70
2015,08,29,17,03,1.60
2015,08,29,17,04,2.90
2015,08,29,17,05,3.30
2015,08,29,17,06,2.80
2015,08,29,17,07,3.30
2015,08,29,17,08,1.80
2015,08,29,17,09,1.70
2015,08,29,17,10,2.10
2015,08,29,17,11,2.00
2015,08,29,17,12,1.40
2015,08,29,17,13,2.30
2015,08,29,17,14,2.70
2015,08,29,17,15,2.50
2015,08,29,17,16,2.90
2015,08,29,17,17,2.90
2015,08,29,17,18,2.10
2015,08,29,17,19,2.80
2015,08,29,17,20,3.80
2015,08,29,17,21,3.10
2015,08,29,17,22,1.40
2015,08,29,17,23,0.00
2015,08,29,17,24,0.00
2015,08,29,17,25,0.00
2015,08,29,17,26,0.00
2015,08,29,17,27,0.00
2015,08,29,17,28,1.50
2015,08,29,17,29,3.30
2015,08,29,17,30,4.00
2015,08,29,17,31,4.40
2015,08,29,17,32,4.00
2015,08,29,17,33,3.20